Skip Page Navigation
NASA JPL Caltech
NASA Logo - Jet Propulsion Laboratory + View the NASA Portal
+ Center for Near-Earth Object Studies
JPL Home Earth Solar System Stars & Galaxies Technology
JPL Solar System Dynamics
BODIES ORBITS EPHEMERIDES TOOLS PHYSICAL DATA DISCOVERY FAQ SITE MAP
JPL Small-Body Database Browser
Search: [ help ]  
332378 (2007 FC11)
Classification: Main-belt Asteroid          SPK-ID: 2332378
Ephemeris | Orbit Diagram | Orbital Elements | Mission Design | Physical Parameters | Discovery Circumstances | Close-Approach Data ]

[ show orbit diagram ]
Orbital Elements at Epoch 2459200.5 (2020-Dec-17.0) TDB
Reference: JPL 14 (heliocentric ecliptic J2000)
 Element Value Uncertainty (1-sigma)   Units 
e .06985512459455866 5.6512e-08  
a 2.854883607680026 3.8842e-08 au
q 2.655455357562575 1.6911e-07 au
i 8.476524918742202 5.7231e-06 deg
node 228.0712020133196 3.9679e-05 deg
peri 341.5300794161679 5.9943e-05 deg
M 299.3111272118089 4.6262e-05 deg
tp 2459497.521308962788
(2021-Oct-10.02130896)
0.00022866 TDB
period 1761.8991145179
4.82
3.5957e-05
9.844e-08
d
yr
n .204324979241791 4.1699e-09 deg/d
Q 3.054311857797477 4.1555e-08 au
  Orbit Determination Parameters
   # obs. used (total)      157  
   data-arc span      5055 days (13.84 yr)  
   first obs. used      2007-03-16  
   last obs. used      2021-01-16  
   planetary ephem.      DE431  
   SB-pert. ephem.      SB431-N16  
   condition code      0  
   norm. resid. RMS      .56601  
   source      ORB  
   producer      Otto Matic  
   solution date      2021-Feb-24 15:48:59  

Additional Information
 Earth MOID = 1.64968 au 
 Jupiter MOID = 1.92729 au 
 T_jup = 3.284 
[ show covariance matrix ]

Ephemeris | Orbit Diagram | Orbital Elements | Mission Design | Physical Parameters | Discovery Circumstances | Close-Approach Data ]

Physical Parameter Table
Parameter Symbol Value Units Sigma Reference Notes
absolute magnitude H 16.5   n/a MPO460355  

332378 (2007 FC11)          Discovered 2007-Mar-16 by Spacewatch at Kitt Peak
Reference: 20120703/Numbers.arcLast Updated: 2012-07-09

[ show close-approach data ]
Ephemeris | Orbit Diagram | Orbital Elements | Mission Design | Physical Parameters | Discovery Circumstances | Close-Approach Data ]
ABOUT SSD CREDITS/AWARDS PRIVACY/COPYRIGHT GLOSSARY LINKS
FirstGov 2021-Feb-28 17:18 UT
(server date/time)  
NASA Home Page
Site Manager:   Ryan S. Park
Webmaster  Alan B. Chamberlin